www.pogodaiklimat.ru

Погода и климат >> Архив погоды >> Узбекистан >> Тахтакупыр


ПОГОДА в Тахтакупыре

  • Прогноз погоды в Тахтакупыре
  • Монитор погоды в Тахтакупыре

АРХИВ ПОГОДЫ в Тахтакупыре

Время (UTC), дата Ветер
(напр.,м/с)
 
Видим.   Явления Облачность Т
(С)
Тd
(С)
f
(%)
Тe
(С)
Тes
(С)
Комфортность P
(гПа)
Po
(гПа)
Тmin
(С)
Tmax
(С)
R
(мм)
R24
(мм)
S
(см)
18 12.08 ЮЗ 2 н/о ясно +21.2 +9.4 47 +23 +23 комфорт 1009.2 1002.2 +28.6
21 12.08 З 1 н/о ясно +16.6 +8.6 59 +18 +18 1009.8 1002.7
00 13.08 З 2 н/о ясно +15.7 +8.2 61 +16 +16 1010.5 1003.4
03 13.08 ЮЗ 2 20 км ясно +16.3 +8.0 58 +16 +19 1011.6 1004.5
06 13.08 З 5 20 км 6/6 1000 м
[Cu med, cong]
+22.4 +9.9 45 +24 +27 комфорт 1012.2 1005.2 +15.3
09 13.08 З 5 20 км 8/5 1000 м
[Cu med, cong Ac trans]
+24.5 +7.1 33 +25 +27 комфорт 1011.6 1004.6
12 13.08 З 6 20 км 6/5 1000 м
[Cu med, cong]
+25.9 +5.8 28 +25 +27 комфорт 1010.8 1003.9
15 13.08 СЗ 2 20 км ясно +21.5 +6.8 39 +22 +22 комфорт 1011.6 1004.6 +26.1
18 13.08 ЮЗ 1 н/о ясно +16.5 +5.8 49 +17 +17 1011.5 1004.4 +26.1
21 13.08 ЮЗ 2 н/о ясно +15.0 +6.1 55 +15 +15 1010.5 1003.3
00 14.08 ЮЗ 2 н/о 8/3 1000 м
[Sc Ac trans Ci fib]
+13.3 +6.8 65 +13 +13 1010.5 1003.3
03 14.08 З 2 20 км 3/0
[Ci fib]
+14.7 +6.2 57 +15 +17 1011.4 1004.2
06 14.08 З 3 20 км ясно +22.2 +4.5 31 +22 +33 комфорт 1012.0 1005.0 +12.6
09 14.08 З 4 20 км ясно +24.6 +2.7 24 +24 +35 комфорт 1011.7 1004.7
12 14.08 З 5 20 км 5/0
[Ci fib]
+25.7 +3.0 23 +25 +27 комфорт 1010.7 1003.8
15 14.08 ЮЗ 2 20 км 5/0
[Ac trans Ci sp]
+23.2 +5.6 32 +24 +24 комфорт 1011.6 1004.6 +26.0
18 14.08 ЮЗ 2 н/о 4/0
[Ac trans Ci fib]
+19.6 +6.7 43 +21 +21 комфорт 1011.5 1004.4 +26.0
21 14.08 ЮЗ 2 н/о 8/0
[Ac trans Cc]
+17.0 +7.0 52 +17 +17 1011.5 1004.4
00 15.08 З 1 н/о 5/0
[Ac trans Ci fib]
+14.4 +7.6 64 +15 +15 1011.7 1004.5
03 15.08 З 1 20 км 8/0
[Ac As Ci fib]
+15.6 +8.2 61 +16 +18 1013.2 1006.0
06 15.08 СЗ 2 20 км 9/3 1000 м
[Sc Ac trans Cc]
+23.5 +10.0 42 +25 +30 комфорт 1013.9 1006.8 +13.7
09 15.08 С 5 20 км 9/5 1000 м
[Cu med, cong Ci fib]
+26.6 +9.7 35 +27 +31 жарко 1013.3 1006.4
12 15.08 З 4 20 км 9/6 1000 м
[Cu med, cong Ac trans Ci fib]
+27.0 +8.5 31 +27 +28 жарко 1012.7 1005.8
15 15.08 С 2 20 км 5/3 1000 м
[Sc Ac trans Ci fib]
+24.7 +9.0 37 +25 +25 комфорт 1013.3 1006.2 +27.6
18 15.08 С 1 н/о ясно +17.7 +9.3 58 +19 +19 1014.6 1007.4 +27.6
21 15.08 штиль 0 н/о ясно +14.5 +9.7 73 +14 +14 1015.2 1007.9
00 16.08 С 1 н/о ясно +13.0 +8.8 76 +13 +13 1015.8 1008.5
03 16.08 СВ 1 20 км ясно +18.0 +11.0 64 +19 +22 1017.1 1009.9
06 16.08 СВ 2 20 км ясно +25.4 +10.2 38 +26 +39 жарко 1017.4 1010.5 +12.5
09 16.08 С 1 20 км ясно +29.5 +7.1 24 +28 +47 жарко 1016.3 1009.4
12 16.08 СВ 2 20 км ясно +30.0 +5.8 22 +29 +34 жарко 1014.8 1007.9
15 16.08 З 1 20 км ясно +27.0 +8.8 32 +27 +27 жарко 1014.6 1007.7 +30.7
18 16.08 З 2 н/о ясно +20.7 +9.0 47 +23 +23 комфорт 1015.0 1007.9 +30.7
21 16.08 СЗ 1 н/о ясно +17.3 +9.3 59 +18 +18 1015.0 1007.8
00 17.08 СЗ 1 н/о ясно +15.7 +9.2 65 +16 +16 1014.8 1007.7
03 17.08 С 1 20 км ясно +20.3 +9.9 51 +23 +26 комфорт 1015.2 1008.1
06 17.08 С 3 20 км ясно +28.6 +12.2 36 +30 +40 жарко 1015.0 1008.1 +15.0
09 17.08 СВ 3 20 км ясно +31.4 +8.6 24 +30 +43 жарко 1014.0 1007.2
12 17.08 С 3 20 км ясно +32.5 +8.4 23 +31 +36 жарко 1012.8 1006.0
15 17.08 С 1 20 км ясно +27.7 +10.9 35 +28 +28 жарко 1012.6 1005.7 +33.1
18 17.08 С 1 н/о ясно +20.6 +9.2 48 +23 +23 комфорт 1013.5 1006.4 +33.1
21 17.08 СВ 2 н/о ясно +18.9 +9.4 54 +20 +20 1014.0 1006.8
00 18.08 С 1 н/о ясно +16.6 +9.9 65 +18 +18 1014.8 1007.6
03 18.08 С 1 20 км ясно +21.5 +11.2 52 +23 +26 комфорт 1015.6 1008.5
06 18.08 В 1 20 км ясно +30.1 +12.7 34 +31 +46 жарко 1016.3 1009.5 +15.7
09 18.08 В 3 20 км ясно +33.9 +8.6 21 +32 +45 жарко 1015.7 1008.9
12 18.08 СВ 2 20 км ясно +34.2 +7.7 20 +33 +38 жарко 1015.0 1008.2
15 18.08 СВ 2 20 км ясно +28.5 +10.5 33 +29 +29 жарко 1015.5 1008.6 +35.4
18 18.08 С 2 н/о ясно +20.3 +8.8 48 +22 +22 комфорт 1016.6 1009.5 +35.4
21 18.08 СВ 2 н/о ясно +18.5 +8.2 51 +19 +19 1017.6 1010.4
03 19.08 СВ 1 20 км ясно +21.5 +11.0 51 +23 +26 комфорт 1019.4 1012.3

 

Местоположение метеостанции Тахтакупыр (Каракалпакстан, Узбекистан): широта 42.48 долгота 59.62 высота над уровнем моря 62 м.

В архиве по умолчанию представлена погода в Тахтакупыре за последнюю неделю. Архивные данные за месяц целиком и за предыдущие месяцы, начиная с января 2011 года, Вы можете получить, выбрав интересующий диапазон дат из раскрывающегося списка и нажав кнопку "Ввод!".


*Определитесь, кто Вы:
робот инопланетянин человек

Внимание! Время в таблицах - всемирное. Для получения местного времени необходимо прибавить поправку, которая равна 5 ч.

Смотрите также архив погоды в соседних городах и на ближайших метеорологических станциях:

Погода в Нукусе (Каракалпакстан, Узбекистан) (3 км)
Погода в Тахиаташе (Каракалпакстан, Узбекистан) (9 км)
Погода в Кенеургенче (Дашогузский велаят, Туркменистан) (45 км)
Погода в Чимбае (Каракалпакстан, Узбекистан) (55 км)
Погода в Дашогузе (Дашогузский велаят, Туркменистан) (83 км)
Погода в Кунграде (Каракалпакстан, Узбекистан) (87 км)
Погода в Гурлене (Хорезмская область, Узбекистан) (95 км)
Погода в Шах-Сенеме (Дашогузский велаят, Туркменистан) (125 км)
Погода в Ургенче (Хорезмская область, Узбекистан) (128 км)
Погода в Хиве (Хорезмская область, Узбекистан) (136 км)

Пояснения к столбцам:

Ветер - указаны скорость ветра в м/с - средняя за 10 мин, порывы в срок и между сроками (в фигурных скобках) и направление, откуда дует ветер: С - северный, СВ - северо-восточный, В - восточный, ЮВ - юго-восточный, Ю - южный, ЮЗ - юго-западный, З - западный, СЗ - северо-западный.
Видимость - горизонтальная дальность видимости в метрах или километрах. При видимости от 1 до 10 км при отсутствии осадков обычно наблюдается дымка, при ухудшении видимости до 1 км и менее - туман. В сухую погоду видимость может ухудшаться дымом, пылью или мглою.
Явления - указаны атмосферные явления, наблюдавшиеся в срок или в последний час перед сроком; фигурными скобками обозначены явления, наблюдавшиеся между сроками (за 1-3 часа до срока); квадратными скобками обозначены град или гололедные отложения с указанием их диаметра в мм.
Облачность - указаны через наклонную черту общая и нижняя облачность в баллах и высота нижней границы облаков в метрах; квадратными скобками обозначены формы облаков: Ci - перистые, Cs - перисто-слоистые, Cc - перисто-кучевые, Ac - высококучевые, As - высокослоистые, Sc - слоисто-кучевые, Ns - слоисто-дождевые, Cu - кучевые, Cb - кучево-дождевые. Подробнее классификацию облаков см. в Атласе облаков (PDF).
T - Температура воздуха - температура, измеренная на высоте 2 м над землей.
Td - Температура точки росы - температура, при понижении до которой содержащийся в воздухе водяной пар достигнет насыщения.
f - Относительная влажность воздуха - влажноcть воздуха, измеренная на высоте 2 м над землей.
Te - Эффективная температура - температура, которую ощущает одетый по сезону человек в тени. Характеристика душности погоды. При расчете учитывается влияние влажности воздуха и скорости ветра на теплоощущения человека.
Tes - Эффективная температура на солнце - температура, которую ощущает человек, с поправкой на солнечный нагрев. Характеристика знойности погоды. Зависит от высоты солнца над горизонтом, облачности и скорости ветра. Ночью, в пасмурную погоду, а также при ветре 12 м/с и более поправка равна нулю.
P - Атмосферное давление - приведенное к уровню моря атмосферное давление.
Po - Атмосферное давление - измеренное на уровне метеостанции атмосферное давление.
Tmin - Минимальная температура - минимум температуры воздуха на высоте 2 м над землей.
Tmax - Максимальная температура - максимум температуры воздуха на высоте 2 м над землей.
R - Количество осадков - Количество выпавших осадков за период времени, мм. При наведении курсора мыши на число - период времени, за который выпало указанное количество осадков.
R24 - Количество осадков - Количество выпавших осадков за 24 часа, мм.
S - Снежный покров - Высота снежного покрова, см. При наведении курсора мыши на число - состояние снежного покрова и степень покрытия местности в баллах.